Change the Weather History Date:

Friday, June 14, 2013

  Actual Average Record
Temperature  
Mean Temperature 86 °F -  
Max Temperature 100 °F 91 °F 113 °F (1960)
Min Temperature 73 °F 65 °F 50 °F (1951)
Cooling Degree Days 22    
Growing Degree Days 36 (Base 50)    
Moisture  
Dew Point 1 °F    
Average Humidity 5    
Maximum Humidity 10    
Minimum Humidity 4    
Precipitation  
Precipitation 0.00 in - - ()
Sea Level Pressure  
Sea Level Pressure 29.76 in    
Wind  
Wind Speed 7 mph (WSW)    
Max Wind Speed 15 mph    
Max Gust Speed 21 mph    
Visibility 10 miles    
Events      
Averages and records for this station are not official NWS values.
T = Trace of Precipitation, MM = Missing Value Source: NWS Daily Summary

Daily Weather History Graph

Daily Weather History Graph

Search for Another Location

Airport or City:

Trip Planner

Search our weather history database for the weather conditions in past years. The results will help you decide how hot, cold, wet, or windy it might be!

Date:

Astronomy

Jun. 14, 2013 Rise Set
Actual Time 5:22 AM PDT 7:59 PM PDT
Civil Twilight 4:52 AM PDT 8:29 PM PDT
Nautical Twilight 4:14 AM PDT 9:07 PM PDT
Astronomical Twilight 3:32 AM PDT 9:49 PM PDT
Moon 10:53 AM PDT (6/14) 11:47 PM PDT (6/14)
Length of Visible Light 15h 37m
Length of Day
14h 36m
Waxing Crescent, 31% of the Moon is Illuminated
Jun 14
Waxing Crescent
Jun 16
First Quarter
Jun 23
Full
Jun 29
Last Quarter
Jul 8
New

Hourly Weather History & Observations

Time (PDT) Temp. Dew Point Humidity Pressure Visibility Wind Dir Wind Speed Gust Speed Precip Events Conditions
12:53 AM 82.9 °F 9.0 °F 6% 29.75 in 10.0 mi West 6.9 mph - N/A   Clear
1:53 AM 82.0 °F 7.0 °F 6% 29.77 in 10.0 mi Calm Calm - N/A   Clear
2:53 AM 80.1 °F 5.0 °F 6% 29.78 in 10.0 mi West 3.5 mph - N/A   Clear
3:53 AM 75.9 °F 5.0 °F 6% 29.79 in 10.0 mi NW 5.8 mph - N/A   Clear
4:53 AM 73.9 °F 10.9 °F 9% 29.81 in 10.0 mi WNW 9.2 mph - N/A   Clear
5:53 AM 73.0 °F 10.9 °F 9% 29.83 in 10.0 mi WNW 10.4 mph - N/A   Clear
6:53 AM 77.0 °F 16.0 °F 10% 29.84 in 10.0 mi NNW 5.8 mph - N/A   Clear
7:53 AM 82.0 °F 1.9 °F 5% 29.84 in 10.0 mi NW 9.2 mph - N/A   Clear
8:53 AM 84.9 °F 1.9 °F 4% 29.85 in 10.0 mi Variable 6.9 mph - N/A   Clear
9:53 AM 86.0 °F -0.0 °F 4% 29.84 in 10.0 mi Calm Calm - N/A   Clear
10:53 AM 89.1 °F -2.0 °F 4% 29.84 in 10.0 mi Calm Calm - N/A   Clear
11:53 AM 91.9 °F -2.0 °F 4% 29.82 in 10.0 mi SSE 6.9 mph - N/A   Clear
12:53 PM 93.9 °F 1.9 °F 4% 29.80 in 10.0 mi SE 10.4 mph 17.3 mph N/A   Clear
1:53 PM 96.1 °F 3.9 °F 4% 29.77 in 10.0 mi SE 9.2 mph 18.4 mph N/A   Clear
2:53 PM 98.1 °F 6.1 °F 4% 29.74 in 10.0 mi ESE 11.5 mph - N/A   Clear
3:53 PM 100.0 °F 6.1 °F 4% 29.71 in 10.0 mi South 8.1 mph 16.1 mph N/A   Clear
4:53 PM 100.0 °F -18.0 °F 4% 29.69 in 10.0 mi WSW 8.1 mph - N/A   Clear
5:53 PM 100.0 °F -9.9 °F 4% 29.68 in 10.0 mi WSW 13.8 mph - N/A   Clear
6:53 PM 98.1 °F -16.1 °F 4% 29.67 in 10.0 mi West 13.8 mph - N/A   Clear
7:53 PM 95.0 °F -8.0 °F 4% 29.68 in 10.0 mi West 15.0 mph 20.7 mph N/A   Clear
8:53 PM 91.9 °F -4.0 °F 4% 29.69 in 10.0 mi WSW 9.2 mph - N/A   Clear
9:53 PM 89.1 °F -2.0 °F 4% 29.71 in 10.0 mi West 6.9 mph - N/A   Clear
10:53 PM 88.0 °F 1.0 °F 4% 29.73 in 10.0 mi West 8.1 mph - N/A   Clear
11:53 PM 84.9 °F 3.0 °F 4% 29.73 in 10.0 mi SE 4.6 mph - N/A   Clear